TimePDT,TemperatureF,Dew PointF,Humidity,Sea Level PressureIn,VisibilityMPH,Wind Direction,Wind SpeedMPH,Gust SpeedMPH,PrecipitationIn,Events,Conditions,WindDirDegrees,DateUTC
12:02 AM,53.6,53.6,100,30.15,2.0,North,3.5,-,N/A,,Overcast,360,2013-06-28 07:02:00
12:21 AM,53.6,53.6,100,30.15,1.5,Calm,Calm,-,N/A,,Overcast,0,2013-06-28 07:21:00
12:35 AM,53.6,53.6,100,30.15,3.0,Calm,Calm,-,N/A,,Overcast,0,2013-06-28 07:35:00
12:42 AM,53.6,53.6,100,30.15,1.8,Calm,Calm,-,N/A,,Overcast,0,2013-06-28 07:42:00
12:51 AM,53.6,53.6,100,30.15,1.0,Calm,Calm,-,N/A,,Mist,0,2013-06-28 07:51:00
12:56 AM,53.1,53.1,100,30.15,0.8,Calm,Calm,-,N/A,,Mist,0,2013-06-28 07:56:00
1:46 AM,53.6,53.6,100,30.14,1.2,Calm,Calm,-,N/A,,Partly Cloudy,0,2013-06-28 08:46:00
1:48 AM,53.6,53.6,100,30.14,2.5,Calm,Calm,-,N/A,,Partly Cloudy,0,2013-06-28 08:48:00
1:56 AM,54.0,54.0,100,30.14,8.0,Calm,Calm,-,N/A,,Clear,0,2013-06-28 08:56:00
2:11 AM,51.8,51.8,100,30.13,2.5,NW,3.5,-,N/A,,Partly Cloudy,320,2013-06-28 09:11:00
2:13 AM,53.6,51.8,94,30.13,1.0,NW,3.5,-,N/A,,Mist,320,2013-06-28 09:13:00
2:20 AM,51.8,51.8,100,30.13,0.2,NW,3.5,-,N/A,Fog,Fog,310,2013-06-28 09:20:00
2:54 AM,53.6,53.6,100,30.13,1.0,NNW,3.5,-,N/A,,Clear,330,2013-06-28 09:54:00
2:56 AM,53.1,53.1,100,30.13,1.0,NNW,3.5,-,N/A,,Clear,340,2013-06-28 09:56:00
3:07 AM,55.4,55.4,100,30.13,2.5,Calm,Calm,-,N/A,,Clear,0,2013-06-28 10:07:00
3:14 AM,53.6,53.6,100,30.13,4.0,Calm,Calm,-,N/A,,Clear,0,2013-06-28 10:14:00
3:45 AM,51.8,51.8,100,30.13,1.8,Calm,Calm,-,N/A,,Partly Cloudy,0,2013-06-28 10:45:00
3:47 AM,53.6,53.6,100,30.13,1.0,Calm,Calm,-,N/A,,Mist,0,2013-06-28 10:47:00
3:54 AM,53.6,53.6,100,30.13,0.2,NW,3.5,-,N/A,Fog,Fog,320,2013-06-28 10:54:00
3:56 AM,53.1,53.1,100,30.13,0.2,NW,3.5,-,N/A,Fog,Fog,320,2013-06-28 10:56:00
4:52 AM,53.6,53.6,100,30.12,2.5,Calm,Calm,-,N/A,,Mostly Cloudy,0,2013-06-28 11:52:00
4:56 AM,53.1,53.1,100,30.12,6.0,Calm,Calm,-,N/A,,Scattered Clouds,0,2013-06-28 11:56:00
5:31 AM,51.8,51.8,100,30.12,1.8,Calm,Calm,-,N/A,,Clear,0,2013-06-28 12:31:00
5:33 AM,51.8,51.8,100,30.12,1.0,Calm,Calm,-,N/A,,Mist,0,2013-06-28 12:33:00
5:40 AM,51.8,51.8,100,30.11,0.2,Calm,Calm,-,N/A,Fog,Fog,0,2013-06-28 12:40:00
5:56 AM,53.1,53.1,100,30.12,0.2,Calm,Calm,-,N/A,Fog,Fog,0,2013-06-28 12:56:00
6:04 AM,53.6,53.6,100,30.11,2.5,Calm,Calm,-,N/A,,Mist,0,2013-06-28 13:04:00
6:11 AM,53.6,53.6,100,30.12,3.0,Calm,Calm,-,N/A,,Mist,0,2013-06-28 13:11:00
6:26 AM,53.6,53.6,100,30.12,2.5,North,3.5,-,N/A,,Partly Cloudy,350,2013-06-28 13:26:00
6:44 AM,55.4,55.4,100,30.11,5.0,Calm,Calm,-,N/A,,Partly Cloudy,0,2013-06-28 13:44:00
6:56 AM,57.0,57.0,100,30.12,5.0,Calm,Calm,-,N/A,,Clear,0,2013-06-28 13:56:00
7:02 AM,57.2,57.2,100,30.12,1.8,NW,4.6,-,N/A,,Partly Cloudy,310,2013-06-28 14:02:00
7:05 AM,57.2,57.2,100,30.12,1.0,NW,3.5,-,N/A,,Mist,320,2013-06-28 14:05:00
7:13 AM,57.2,57.2,100,30.12,0.8,NW,3.5,-,N/A,,Mist,320,2013-06-28 14:13:00
7:21 AM,57.2,57.2,100,30.12,1.2,Calm,Calm,-,N/A,,Mostly Cloudy,0,2013-06-28 14:21:00
7:25 AM,57.2,57.2,100,30.12,2.0,NNW,3.5,-,N/A,,Mostly Cloudy,330,2013-06-28 14:25:00
7:30 AM,57.2,57.2,100,30.12,4.0,NNW,4.6,-,N/A,,Scattered Clouds,330,2013-06-28 14:30:00
7:56 AM,59.0,57.9,96,30.12,7.0,NW,3.5,-,N/A,,Clear,320,2013-06-28 14:56:00
8:56 AM,61.0,59.0,93,30.13,9.0,NNW,3.5,-,N/A,,Clear,340,2013-06-28 15:56:00
9:56 AM,64.9,60.1,84,30.13,9.0,NW,8.1,-,N/A,,Clear,310,2013-06-28 16:56:00
10:56 AM,63.0,59.0,87,30.14,10.0,NNW,10.4,-,N/A,,Clear,340,2013-06-28 17:56:00
11:56 AM,64.0,59.0,84,30.15,10.0,NNW,10.4,-,N/A,,Clear,340,2013-06-28 18:56:00
12:56 PM,66.0,60.1,81,30.14,10.0,NNW,9.2,-,N/A,,Clear,330,2013-06-28 19:56:00
1:56 PM,64.9,60.1,84,30.13,10.0,NW,8.1,-,N/A,,Clear,310,2013-06-28 20:56:00
2:56 PM,64.9,60.1,84,30.12,10.0,NW,9.2,-,N/A,,Clear,320,2013-06-28 21:56:00
3:56 PM,64.0,59.0,84,30.11,10.0,NNW,9.2,-,N/A,,Clear,340,2013-06-28 22:56:00
4:56 PM,68.0,57.9,70,30.11,10.0,NNW,9.2,-,N/A,,Clear,340,2013-06-28 23:56:00
5:56 PM,68.0,57.9,70,30.11,10.0,North,6.9,-,N/A,,Clear,350,2013-06-29 00:56:00
6:56 PM,64.0,57.9,80,30.11,10.0,North,5.8,-,N/A,,Clear,350,2013-06-29 01:56:00
7:56 PM,64.0,55.9,75,30.12,10.0,North,6.9,-,N/A,,Clear,360,2013-06-29 02:56:00
8:56 PM,60.1,55.9,86,30.11,10.0,North,3.5,-,N/A,,Clear,10,2013-06-29 03:56:00
9:56 PM,60.1,57.0,90,30.11,10.0,Calm,Calm,-,N/A,,Clear,0,2013-06-29 04:56:00
10:56 PM,57.0,55.0,93,30.11,6.0,NW,4.6,-,N/A,,Clear,310,2013-06-29 05:56:00
11:56 PM,57.9,55.9,93,30.09,10.0,ENE,3.5,-,N/A,,Clear,60,2013-06-29 06:56:00